Regional Weather Roundup
Issued by NWS

Home | Current Version | Previous Version | Graphics & Text | Print | Product List | Glossary On
Versions: 1 2 3 4 5 6 7 8 9 10 11 12 13 14 15 16 17 18 19 20 21 22 23 24 25 26 27 28 29 30 31 32 33 34 35 36 37 38 39 40 41 42 43 44 45 46 47 48 49 50
000
ASUS43 KMKX 260100
RWRWI

WISCONSIN REGIONAL WEATHER ROUNDUP
NATIONAL WEATHER SERVICE MILWAUKEE/SULLIVAN WI
700 PM CST TUE NOV 25 2014

NOTE: "FAIR" INDICATES FEW OR NO CLOUDS BELOW 12,000 FEET WITH NO
SIGNIFICANT WEATHER AND/OR OBSTRUCTIONS TO VISIBILITY.

WIZ001-002-006>008-014>016-023>028-260200-
NORTHWEST WISCONSIN

CITY           SKY/WX    TMP DP  RH WIND       PRES   REMARKS
SUPERIOR ARPT  CLOUDY    17  11  76 SW3       30.05R
ASHLAND        PTCLDY    12   9  87 CALM      30.06R
HAYWARD        MOCLDY    13  10  88 CALM      30.02S
SIREN          CLOUDY    20  14  77 CALM      30.03S
CUMBERLAND     CLOUDY    19  14  79 S5        30.01S WCI  13
RICE LAKE      CLOUDY    21  15  76 SE5       30.04S WCI  14
CHETEK         CLOUDY    20  14  76 SE5       30.04S WCI  14
LADYSMITH      CLOUDY    20  15  79 S5        30.04S WCI  14
EAU CLAIRE     NOT AVBL
MENOMONIE      CLOUDY    23  16  74 SE6       30.05F WCI  16
NEW RICHMOND   CLOUDY    22  15  73 S6        30.03S WCI  15
OSCEOLA        CLOUDY    22  16  75 S5        30.06S WCI  16
$$

WIZ003>005-009-010-017-018-260200-
NORTH CENTRAL WISCONSIN

CITY           SKY/WX    TMP DP  RH WIND       PRES   REMARKS
MANITOWISH WTR PTCLDY     5   3  91 S5        30.00R WCI  -4
ARBOR VITAE    CLEAR     11   9  89 CALM      30.00S
WOODRUFF       CLEAR     11   9  89 CALM      30.00S
RHINELANDER    CLEAR      6   3  87 CALM      30.02R
EAGLE RIVER    CLEAR      8   5  86 CALM      30.00S
LAND O LAKES   CLEAR      4   1  88 CALM      30.01R
PHILLIPS       PTCLDY    10   8  92 CALM      30.00S
TOMAHAWK       CLEAR      8   5  90 CALM      30.03R
MEDFORD        CLOUDY    17  12  83 S5        30.02F WCI   9
MERRILL        CLEAR     13  11  91 CALM      30.04S
$$

WIZ029-030-035-036-043>047-260200-
CENTRAL WISCONSIN

CITY           SKY/WX    TMP DP  RH WIND       PRES   REMARKS
WAUSAU         CLEAR     12  10  92 CALM      30.05S
MOSINEE        CLEAR     10  10 100 CALM      30.06F
MARSHFIELD     CLOUDY    20  14  77 CALM      30.05S
STEVENS POINT  FOG        9   8  92 CALM      30.08S VSB 1
WAUPACA        PTCLDY    16  13  86 S3        30.11F
WAUTOMA        FOG       10   9  92 CALM      30.11F VSB 1/4
WISC RAPIDS    CLOUDY    16  12  84 S3        30.09S
CAMP DOUGLAS   NOT AVBL
$$

WIZ011>013-019>022-031-037>040-048>050-260200-
NORTHEAST WISCONSIN

CITY           SKY/WX    TMP DP  RH WIND       PRES   REMARKS
ANTIGO         CLEAR      7   6  93 SW7       30.04S WCI  -4
SHAWANO        CLEAR     20  15  82 CALM      30.11S
OCONTO         CLOUDY    21  17  85 W6        30.11R WCI  14
STURGEON BAY   CLOUDY    25  16  68 SW7       30.10R WCI  17
GREEN BAY      CLOUDY    21  16  81 W5        30.12R WCI  15
MANITOWOC      NOT AVBL
APPLETON       CLOUDY    19  16  86 VRB5      30.11R WCI  13
CLINTONVILLE   PTCLDY    14  12  92 SW3       30.10S
OSHKOSH        CLOUDY    20  15  81 W3        30.12S
$$

WIZ032>034-041-042-053>061-260200-
SOUTHWEST WISCONSIN

CITY           SKY/WX    TMP DP  RH WIND       PRES   REMARKS
LA CROSSE      PTCLDY    21  13  71 SW3       30.10R
SPARTA         CLOUDY    17  14  90 CALM      30.09F
VIROQUA        CLEAR     16  12  86 S7        30.06F WCI   6
BOSCOBEL       CLEAR     13   9  84 CALM      30.12F FOG
PRAIRIE DU CHI CLEAR     17  13  84 E3        30.11F
PLATTEVILLE    CLEAR     18  14  86 CALM      30.12R
$$

WIZ056-057-062-063-064-067-068-260200-
SOUTH CENTRAL WISCONSIN

CITY           SKY/WX    TMP DP  RH WIND       PRES   REMARKS
REEDSBURG      CLEAR     14  12  95 CALM      30.10S
BARABOO/DELLS  CLEAR     13  11  91 CALM      30.10S
LONE ROCK      NOT AVBL
MINERAL POINT  CLEAR     21  18  86 CALM      30.10R
MADISON        PTCLDY    17  14  88 CALM      30.11S
MIDDLETON      CLEAR     12  10  92 CALM      30.12S
WATERTOWN      CLOUDY    21  17  85 SW3       30.11S
MONROE         CLEAR     19  18  93 SW5       30.10R WCI  13
JANESVILLE     CLEAR     18  14  86 S8        30.13R WCI   7
$$

WIZ051-052-058>065-066-070>072-260200-
SOUTHEAST WISCONSIN

CITY           SKY/WX    TMP DP  RH WIND       PRES   REMARKS
MILWAUKEE      CLOUDY    22  15  75 W8        30.14S WCI  12
WAUKESHA       CLOUDY    19  16  86 SW5       30.13S WCI  13
MILWAUKEE/TIMM CLOUDY    21  16  79 SW3       30.14S
RACINE         CLOUDY    22  16  78 W5        30.17R WCI  16
BURLINGTON     MOCLDY    18  14  83 W3        30.13F
KENOSHA        CLOUDY    21  15  78 SW5       30.15R WCI  15
FOND DU LAC    CLOUDY    21  14  74 W6        30.12S WCI  13
SHEBOYGAN      CLOUDY    20  14  77 W9        30.13R WCI   9
WEST BEND      CLOUDY    21  16  79 W6        30.11S WCI  14
JUNEAU         PTCLDY    18  15  89 CALM      30.12S
$$

LSZ147-162-260200-
LAKE SUPERIOR

STATION/POSITION TIME  TEMP    WIND        PRES    WAVE
                       AIR SEA DIR/SP/G            HT/PER
                 (UTC) (F)     (DEG/KT/KT) (MB)    (FT/S)
DEVILS ISLAND    0000   22     210/ 12/ 14 1018.1R
PORT WING        0040   17     160/  2/  3 1017.6R
SAXON HARBOR     0000   16        CALM     1017.3S
$$

LMZ867-665-643>646-260200-
LAKE MICHIGAN

STATION/POSITION TIME  TEMP    WIND        PRES    WAVE
                       AIR SEA DIR/SP/G            HT/PER
                 (UTC) (F)     (DEG/KT/KT) (MB)    (FT/S)
CHAMBERS ISLAND  0000   26     250/  4/  7 1018.6S
N MID LAKE BUOY  2350   28 42  270/  8/ 10 1019.2R   2/ 4
NORTHPORT PIER   0002   26     170/  1/  4 1018.6R
SISTER BAY       2313          290/  4/  9   N/A
ALGOMA LAKESHORE 2243          260/  5/  8   N/A
KEWAUNEE LAKESHO 0000   23     240/  4/  7 1018.7R
SHEBOYGAN LAKESH 0000   22 36  260/  9/ 10 1021.4S
PORT WASHINGTON  0000   23     280/  7/ 11 1021.3
MILWAUKEE LAKESH 0000   23     280/  5/  7   N/A
S MID LAKE BUOY  2350   29 42  270/ 10/ 16 1021.5R   3/ 6
KENOSHA   LAKESH 0000   24     270/  7/ 12 1021.0R
$$

TC  - TEMPERATURE IN CELSIUS
VSB - VISIBILITY IN STATUTE MILES
WCI - WIND CHILL INDEX
HX  - HEAT INDEX



USA.gov is the U.S. government's official web portal to all federal, state and local government web resources and services.